• In Hungary
  • List of Countries
  • For 7 days
  • Water Temperature
  • Satellite Maps
  • Weather Map
  • News
  • Weather Widgets
  • user-avatar
    Login

    Hourly Weather York

    Today, 13 December, Wednesday

    Time Temperature Precipitation Wind Pressure Humidity
    00:00 +2°C° 0.1 mm 6 mps 747 mmHg 92%
    01:00 +2°C° 0 mm 5 mps 747 mmHg 92%
    02:00 +2°C° 0 mm 5 mps 747 mmHg 91%
    03:00 +1°C° 0 mm 4 mps 747 mmHg 91%
    04:00 +1°C° 0 mm 4 mps 746 mmHg 91%
    05:00 +1°C° 0 mm 4 mps 746 mmHg 90%
    06:00 +1°C° 0 mm 4 mps 746 mmHg 90%
    07:00 +3°C° 0.1 mm 4 mps 746 mmHg 91%
    08:00 +2°C° 0.1 mm 5 mps 745 mmHg 91%
    09:00 +2°C° 0.1 mm 5 mps 744 mmHg 92%
    10:00 +3°C° 0.2 mm 6 mps 743 mmHg 91%
    11:00 +3°C° 0.2 mm 6 mps 742 mmHg 90%
    12:00 +4°C° 0.2 mm 7 mps 741 mmHg 89%
    13:00 +4°C° 0.6 mm 7 mps 740 mmHg 84%
    14:00 +3°C° 0.6 mm 7 mps 740 mmHg 80%
    15:00 +2°C° 0.6 mm 8 mps 739 mmHg 76%
    16:00 +2°C° 0 mm 7 mps 739 mmHg 76%
    17:00 +1°C° 0 mm 6 mps 739 mmHg 75%
    18:00 +1°C° 0 mm 6 mps 739 mmHg 75%
    19:00 +1°C° 0.5 mm 6 mps 738 mmHg 77%
    20:00 +1°C° 0.5 mm 5 mps 738 mmHg 80%
    21:00 0°C° 0.5 mm 5 mps 738 mmHg 82%
    22:00 -1°C° 0.1 mm 6 mps 739 mmHg 79%
    23:00 -1°C° 0.1 mm 6 mps 739 mmHg 76%

    Tomorrow, 14 December, Thursday

    Time Temperature Precipitation Wind Pressure Humidity
    00:00 -1°C° 0.1 mm 7 mps 739 mmHg 73%
    01:00 -1°C° 0 mm 7 mps 739 mmHg 74%
    02:00 -1°C° 0 mm 7 mps 740 mmHg 75%
    03:00 -1°C° 0 mm 7 mps 740 mmHg 76%
    04:00 -1°C° 0.1 mm 7 mps 740 mmHg 76%
    05:00 0°C° 0.1 mm 7 mps 739 mmHg 77%
    06:00 +1°C° 0.1 mm 6 mps 739 mmHg 77%
    07:00 +1°C° 0 mm 6 mps 739 mmHg 78%
    08:00 +1°C° 0 mm 6 mps 739 mmHg 79%
    09:00 +1°C° 0 mm 6 mps 739 mmHg 79%
    10:00 +1°C° 0 mm 6 mps 739 mmHg 78%
    11:00 +2°C° 0 mm 6 mps 739 mmHg 77%
    12:00 +2°C° 0 mm 6 mps 739 mmHg 76%
    13:00 +2°C° 0 mm 6 mps 739 mmHg 78%
    14:00 +1°C° 0 mm 5 mps 739 mmHg 79%
    15:00 +1°C° 0 mm 5 mps 738 mmHg 80%
    16:00 +1°C° 0 mm 5 mps 738 mmHg 82%
    17:00 0°C° 0 mm 4 mps 738 mmHg 84%
    18:00 0°C° 0 mm 4 mps 739 mmHg 85%
    19:00 0°C° 0 mm 4 mps 738 mmHg 86%
    20:00 0°C° 0 mm 4 mps 738 mmHg 86%
    21:00 -1°C° 0 mm 4 mps 738 mmHg 87%
    22:00 0°C° 0 mm 4 mps 738 mmHg 86%
    23:00 0°C° 0 mm 5 mps 738 mmHg 85%

    Day after tomorrow, 15 December, Friday

    Time Temperature Precipitation Wind Pressure Humidity
    00:00 0°C° 0 mm 5 mps 738 mmHg 84%
    01:00 +1°C° 0.2 mm 6 mps 739 mmHg 83%
    02:00 +1°C° 0.2 mm 6 mps 739 mmHg 83%
    03:00 +2°C° 0.2 mm 6 mps 739 mmHg 82%
    04:00 +2°C° 0.2 mm 6 mps 740 mmHg 83%
    05:00 +2°C° 0.2 mm 7 mps 741 mmHg 84%
    06:00 +2°C° 0.2 mm 7 mps 742 mmHg 85%
    07:00 +2°C° 0 mm 6 mps 744 mmHg 84%
    08:00 +2°C° 0 mm 6 mps 745 mmHg 84%
    09:00 +2°C° 0 mm 6 mps 747 mmHg 83%
    10:00 +2°C° 0 mm 6 mps 748 mmHg 81%
    11:00 +3°C° 0 mm 6 mps 749 mmHg 78%
    12:00 +3°C° 0 mm 7 mps 750 mmHg 75%
    13:00 +3°C° 0 mm 6 mps 751 mmHg 76%
    14:00 +2°C° 0 mm 6 mps 751 mmHg 77%
    15:00 +1°C° 0 mm 6 mps 752 mmHg 77%
    16:00 +1°C° 0 mm 6 mps 753 mmHg 78%
    17:00 -1°C° 0 mm 6 mps 753 mmHg 78%
    18:00 -2°C° 0 mm 6 mps 754 mmHg 78%
    19:00 -1°C° 0 mm 5 mps 754 mmHg 77%
    20:00 -1°C° 0 mm 5 mps 755 mmHg 77%
    21:00 -1°C° 0 mm 5 mps 756 mmHg 77%
    22:00 -1°C° 0 mm 5 mps 756 mmHg 77%
    23:00 -1°C° 0 mm 5 mps 756 mmHg 77%

    16 December, Saturday

    Time Temperature Precipitation Wind Pressure Humidity
    00:00 -1°C° 0 mm 5 mps 756 mmHg 77%
    01:00 -1°C° 0 mm 5 mps 757 mmHg 76%
    02:00 -1°C° 0 mm 5 mps 757 mmHg 76%
    03:00 -1°C° 0 mm 5 mps 758 mmHg 76%
    04:00 -1°C° 0 mm 5 mps 758 mmHg 76%
    05:00 -1°C° 0 mm 5 mps 758 mmHg 76%
    06:00 -1°C° 0 mm 5 mps 759 mmHg 76%
    07:00 -1°C° 0 mm 4 mps 759 mmHg 76%
    08:00 -1°C° 0 mm 4 mps 759 mmHg 76%
    09:00 0°C° 0 mm 3 mps 760 mmHg 76%
    10:00 +1°C° 0.1 mm 3 mps 760 mmHg 76%
    11:00 +2°C° 0.1 mm 3 mps 760 mmHg 76%
    12:00 +2°C° 0.1 mm 3 mps 760 mmHg 76%
    13:00 +3°C° 0 mm 2 mps 761 mmHg 78%
    14:00 +3°C° 0 mm 2 mps 761 mmHg 81%
    15:00 +2°C° 0 mm 2 mps 761 mmHg 84%
    16:00 +2°C° 0 mm 2 mps 762 mmHg 84%
    17:00 +1°C° 0 mm 2 mps 762 mmHg 85%
    18:00 +1°C° 0 mm 2 mps 763 mmHg 85%
    19:00 -1°C° 0 mm 2 mps 764 mmHg 84%
    20:00 -1°C° 0 mm 2 mps 764 mmHg 83%
    21:00 -1°C° 0 mm 2 mps 765 mmHg 82%
    22:00 -1°C° 0 mm 2 mps 765 mmHg 81%
    23:00 -1°C° 0 mm 2 mps 766 mmHg 80%

    17 December, Sunday

    Time Temperature Precipitation Wind Pressure Humidity
    00:00 -1°C° 0 mm 2 mps 766 mmHg 80%
    01:00 -1°C° 0 mm 2 mps 766 mmHg 79%
    02:00 -1°C° 0 mm 2 mps 767 mmHg 78%
    03:00 -1°C° 0 mm 2 mps 767 mmHg 77%
    04:00 +1°C° 0 mm 1 mps 767 mmHg 76%
    05:00 +1°C° 0 mm 1 mps 767 mmHg 76%
    06:00 +1°C° 0 mm 1 mps 768 mmHg 75%
    07:00 +1°C° 0 mm 1 mps 768 mmHg 74%
    08:00 -1°C° 0 mm 2 mps 768 mmHg 73%
    09:00 -1°C° 0 mm 2 mps 769 mmHg 72%
    10:00 +1°C° 0 mm 2 mps 768 mmHg 71%
    11:00 +2°C° 0 mm 2 mps 768 mmHg 70%
    12:00 +1°C° 0 mm 3 mps 768 mmHg 69%
    13:00 +1°C° 0 mm 3 mps 768 mmHg 75%
    14:00 +1°C° 0 mm 3 mps 768 mmHg 81%
    15:00 +1°C° 0 mm 3 mps 767 mmHg 87%
    16:00 +1°C° 0 mm 3 mps 767 mmHg 89%
    17:00 0°C° 0 mm 4 mps 767 mmHg 92%
    18:00 0°C° 0 mm 4 mps 767 mmHg 94%
    19:00 0°C° 0.1 mm 4 mps 766 mmHg 94%
    20:00 +1°C° 0.1 mm 5 mps 766 mmHg 94%
    21:00 +2°C° 0.1 mm 5 mps 766 mmHg 94%
    22:00 +3°C° 0.2 mm 6 mps 765 mmHg 93%
    23:00 +3°C° 0.2 mm 6 mps 765 mmHg 92%

    18 December, Monday

    Time Temperature Precipitation Wind Pressure Humidity
    00:00 +4°C° 0.2 mm 7 mps 764 mmHg 92%
    01:00 +5°C° 0 mm 6 mps 764 mmHg 92%
    02:00 +5°C° 0 mm 6 mps 764 mmHg 93%
    03:00 +6°C° 0 mm 5 mps 764 mmHg 94%
    04:00 +6°C° 0 mm 5 mps 764 mmHg 94%
    05:00 +6°C° 0 mm 5 mps 765 mmHg 94%
    06:00 +6°C° 0 mm 4 mps 765 mmHg 94%
    07:00 +6°C° 0 mm 4 mps 766 mmHg 94%
    08:00 +5°C° 0 mm 4 mps 766 mmHg 94%
    09:00 +5°C° 0 mm 3 mps 767 mmHg 94%
    10:00 +5°C° 0 mm 3 mps 767 mmHg 94%
    11:00 +5°C° 0 mm 3 mps 768 mmHg 94%
    12:00 +6°C° 0 mm 2 mps 768 mmHg 93%
    13:00 +6°C° 0 mm 2 mps 768 mmHg 94%
    14:00 +6°C° 0 mm 2 mps 769 mmHg 94%
    15:00 +6°C° 0 mm 1 mps 769 mmHg 94%
    16:00 +6°C° 0 mm 1 mps 769 mmHg 94%
    17:00 +5°C° 0 mm 1 mps 770 mmHg 94%
    18:00 +5°C° 0 mm 1 mps 770 mmHg 94%
    19:00 +5°C° 0 mm 1 mps 770 mmHg 94%
    20:00 +4°C° 0 mm 1 mps 771 mmHg 94%
    21:00 +4°C° 0 mm 1 mps 771 mmHg 93%
    22:00 +4°C° 0 mm 1 mps 771 mmHg 93%
    23:00 +4°C° 0 mm 1 mps 772 mmHg 93%
    Show more